Park Rapids, MN

9:12 PM CST on December 16, 2017 (GMT -0600)
Park Rapids Municipal

Weather History for KPKD - June, 2012

Change the Weather History Date:

Friday, June 8, 2012

  Actual Average Record
Temperature  
Mean Temperature 73 °F -  
Max Temperature 82 °F 74 °F 92 °F (1952)
Min Temperature 64 °F 48 °F 35 °F (1982)
Cooling Degree Days 8    
Growing Degree Days 23 (Base 50)    
Moisture  
Dew Point 59 °F    
Average Humidity 63    
Maximum Humidity 87    
Minimum Humidity 42    
Precipitation  
Precipitation 0.00 in - - ()
Sea Level Pressure  
Sea Level Pressure 29.79 in    
Wind  
Wind Speed 9 mph (SW)    
Max Wind Speed 18 mph    
Max Gust Speed 24 mph    
Visibility 10 miles    
Events      
Averages and records for this station are not official NWS values.
T = Trace of Precipitation, MM = Missing Value Source: NWS Daily Summary

Daily Weather History Graph

Daily Weather History Graph

Search for Another Location

Airport or City:

Trip Planner

Search our weather history database for the weather conditions in past years. The results will help you decide how hot, cold, wet, or windy it might be!

Date:

Astronomy

Jun. 08, 2012 Rise Set
Actual Time 5:26 AM CDT 9:13 PM CDT
Civil Twilight 4:46 AM CDT 9:52 PM CDT
Nautical Twilight 3:53 AM CDT 10:45 PM CDT
Astronomical Twilight 2:37 AM CDT 12:02 AM CDT
Moon No Moon Rise 10:20 AM CDT (6/8)
Length of Visible Light 17h 05m
Length of Day
15h 47m
Waning Gibbous, 77% of the Moon is Illuminated
Jun 8
Waning Gibbous
Jun 11
Last Quarter
Jun 19
New
Jun 26
First Quarter
Jul 3
Full

Hourly Weather History & Observations

Time (CDT) Temp. Heat Index Dew Point Humidity Pressure Visibility Wind Dir Wind Speed Gust Speed Precip Events Conditions
12:53 AM 69.1 °F - 60.1 °F 73% 29.88 in 10.0 mi SSE 6.9 mph - N/A   Clear
1:53 AM 68.0 °F - 60.1 °F 76% 29.88 in 10.0 mi SE 6.9 mph - N/A   Scattered Clouds
2:53 AM 66.9 °F - 61.0 °F 81% 29.86 in 10.0 mi South 4.6 mph - N/A   Clear
3:53 AM 66.0 °F - 61.0 °F 84% 29.83 in 10.0 mi SSE 5.8 mph - N/A   Clear
4:53 AM 64.0 °F - 60.1 °F 87% 29.81 in 10.0 mi SSE 6.9 mph - N/A   Clear
5:53 AM 66.0 °F - 60.1 °F 81% 29.84 in 10.0 mi SSW 8.1 mph 19.6 mph N/A   Clear
6:53 AM 66.0 °F - 60.1 °F 81% 29.85 in 10.0 mi WSW 9.2 mph - N/A   Mostly Cloudy
7:53 AM 66.9 °F - 57.9 °F 73% 29.86 in 10.0 mi WSW 10.4 mph - N/A   Clear
8:53 AM 70.0 °F - 57.9 °F 65% 29.85 in 10.0 mi WSW 11.5 mph - N/A   Clear
9:53 AM 73.0 °F - 57.0 °F 57% 29.84 in 10.0 mi West 11.5 mph - N/A   Clear
10:53 AM 75.9 °F - 57.0 °F 52% 29.83 in 10.0 mi WSW 13.8 mph - N/A   Clear
11:53 AM 77.0 °F - 57.9 °F 52% 29.83 in 10.0 mi WSW 17.3 mph - N/A   Clear
12:53 PM 78.1 °F - 59.0 °F 52% 29.81 in 10.0 mi SW 16.1 mph 21.9 mph N/A   Clear
1:53 PM 80.1 °F 80.6 °F 57.9 °F 47% 29.79 in 10.0 mi WSW 15.0 mph - N/A   Clear
2:53 PM 81.0 °F 80.8 °F 55.9 °F 42% 29.77 in 10.0 mi West 18.4 mph 24.2 mph N/A   Clear
3:53 PM 82.0 °F 81.7 °F 57.0 °F 42% 29.76 in 10.0 mi WSW 13.8 mph - N/A   Clear
4:53 PM 82.9 °F 82.6 °F 57.9 °F 42% 29.74 in 10.0 mi WSW 16.1 mph 20.7 mph N/A   Partly Cloudy
5:53 PM 82.9 °F 82.6 °F 57.9 °F 42% 29.72 in 10.0 mi WSW 13.8 mph - N/A   Clear
6:53 PM 82.0 °F 82.0 °F 57.9 °F 44% 29.70 in 10.0 mi WSW 13.8 mph - N/A   Clear
7:53 PM 80.1 °F 80.9 °F 60.1 °F 50% 29.69 in 10.0 mi SW 9.2 mph - N/A   Clear
8:53 PM 73.9 °F - 61.0 °F 64% 29.69 in 10.0 mi SW 4.6 mph - N/A   Clear
9:53 PM 72.0 °F - 61.0 °F 68% 29.70 in 10.0 mi Calm Calm - N/A   Clear
10:53 PM 69.1 °F - 61.0 °F 75% 29.70 in 10.0 mi South 3.5 mph - N/A   Clear
11:53 PM 69.1 °F - 62.1 °F 78% 29.70 in 10.0 mi Calm Calm - N/A   Clear